Hourly Data Report for July 25, 2021

TORONTO CITY CENTRE
ONTARIO
Current Station Operator: NAVCAN

43°37'39.000" N
79°23'46.000" W
76.80 m
6158359
71265
YTZ

Download Data

Hourly Data (July 2021)
Hourly Data Report for July 25, 2021
TIME
LST
Temp Definition
°C
Dew Point Definition
°C
Rel Hum Definition
%
Precip. Amount Definition
mm

Wind Dir Definition
10's deg

Wind Spd Definition
km/h
Visibility Definition
km
Stn Press Definition
kPa
Hmdx Definition


Wind Chill Definition


Weather Definition


00:00 21.4 20.6 95 1.0 25 17 16.1 99.79 29   LegendNANA
01:00 21.3 20.7 96 0.0 24 18 16.1 99.86 29   LegendNANA
02:00 21.1 19.7 91 0.0 28 15 16.1 99.91 28   LegendNANA
03:00 20.3 18.6 90 0.0 28 13 16.1 99.92 27   LegendNANA
04:00 19.2 18.1 93 0.0 28 8 16.1 99.92     LegendNANA
05:00 19.0 18.0 94 0.0 26 8 16.1 99.99     LegendNANA
06:00 19.8 18.7 93 0.0 27 9 16.1 100.06     LegendNANA
07:00 20.9 19.4 91 0.0 21 15 16.1 100.09 28   LegendNANA
08:00 21.4 20.1 92 0.0 22 21 16.1 100.15 29   LegendNANA
09:00 22.0 20.7 92 0.0 23 17 16.1 100.13 30   LegendNANA
10:00 22.5 20.7 90 0.0 21 17 16.1 100.15 31   LegendNANA
11:00 23.8 21.2 85 0.0 19 15 16.1 100.16 32   LegendNANA
12:00 24.4 21.5 84 0.0 18 15 16.1 100.12 33   LegendNANA
13:00 25.3 21.8 81 0.0 19 18 16.1 100.09 34   LegendNANA
14:00 26.3 20.8 72 0.0 20 24 12.9 100.06 35   LegendNANA
15:00 26.2 20.7 71 0.0 22 22 11.3 100.05 34   LegendNANA
16:00 25.8 19.9 70 0.0 21 17 16.1 100.03 33   LegendNANA
17:00 28.6 17.4 50 0.0 26 22 14.5 100.02 34   LegendNANA
18:00 28.6 14.9 43 0.0 26 18 16.1 100.03 33   LegendNANA
19:00 28.2 14.7 43 0.0 30 28 16.1 100.08 32   LegendNANA
20:00 25.8 13.7 47 0.0 30 13 12.9 100.16 29   LegendNANA
21:00 25.3 14.0 49 0.0 29 9 9.7 100.22 29   Haze
22:00 24.0 14.9 56 0.0 28 15 9.7 100.26 28   Haze
23:00 22.0 15.3 66 0.0 29 5 9.7 100.29 26   Haze

Notes on Data Quality.

Legend

  • E = Estimated
  • M = Missing
  • NA = Not Available*
  • [empty] = Indicates an unobserved value
Date modified: